Location: Unspecified
(0.0000°N, 0.0000°E)
Time: 03:50:13
(UTC+00:00)

A-11 Canister half - Pass Details

Date: 20 April 2026
Orbit: 1523 x 1685 km, 47.3° (Epoch: 13 May)

Event Time Altitude Azimuth Distance (km) Brightness Sun altitude
Rises 20:19:39 0° 218° (SW) 4,724 11.8 -34.4°
Reaches altitude 10° 20:22:40 10° 216° (SW) 3,758 11.2 -35.1°
Enters shadow 20:30:59 71° 195° (SSW) 1,678 9.0 -37.1°
Maximum altitude 20:32:15 82° 129° (SE) 1,620 - -37.4°
Drops below altitude 10° 20:42:10 10° 42° (NE) 3,878 - -39.8°
Sets 20:45:20 0° 42° (NE) 4,882 - -40.6°
